Simultaneous Nadir Overpasses (SNOs) Predictions

Prediction of SNOs near US between AQUA and NPP Satellite Orbit:

Table of predicted SNOs near US for the next 10.0 days since TLE Epoch: 8/16/2019
Index Date (AQUA) Time (AQUA) AQUA Lat,Lon Date (NPP) Time (NPP) NPP Lat,Lon Distance(km) Time Diff (sec)
1 08/18/2019 08:34:54 20.04,-101.86 08/18/2019 08:26:34 19.21,-102.28 101.65 500
2 08/18/2019 10:11:31 28.23,-124.59 08/18/2019 10:05:27 28.40,-125.31 72.63 364
3 08/21/2019 07:18:37 49.91, -75.98 08/21/2019 07:20:34 50.37, -78.19 165.86 117
4 08/21/2019 08:57:30 49.91,-100.70 08/21/2019 09:02:02 50.47,-103.52 210.28 272
5 08/23/2019 18:16:46 49.99, -80.17 08/23/2019 18:10:51 49.71, -81.79 120.42 355
6 08/23/2019 19:55:39 49.98,-104.88 08/23/2019 19:52:19 49.60,-107.12 165.65 200
7 08/23/2019 21:30:50 36.75,-124.99 08/23/2019 21:29:58 36.23,-127.61 241.05 52
8 08/26/2019 09:23:20 23.72,-113.36 08/26/2019 09:16:01 23.81,-113.82 48.10 439




NCC Satellite Simultaneous Nadir Overpasses (SNOs) Prediction Service
